Regional Weather Roundup
Issued by NWS

Home | Current Version | Previous Version | Graphics & Text | Print | Product List | Glossary On
Versions: 1 2 3 4 5 6 7 8 9 10 11 12 13 14 15 16 17 18 19 20 21 22 23 24 25 26 27 28 29 30 31 32 33 34 35 36 37 38 39 40 41 42 43 44 45 46 47 48 49 50
974
ASUS45 KBOU 190407
RWRCO

WEATHER ROUNDUP FOR COLORADO
NATIONAL WEATHER SERVICE DENVER/BOULDER CO
900 PM MST SAT FEB 18 2017

NOTE: "FAIR" INDICATES FEW OR NO CLOUDS BELOW 12000 FEET WITH NO
SIGNIFICANT WEATHER AND/OR OBSTRUCTIONS TO VISIBILITY.

COZ001>005-013-030-031-190500-
...NORTHWEST COLORADO...

CITY           SKY/WX    TMP DP  RH WIND       PRES   REMARKS
CRAIG          FAIR      32  28  85 NE3       29.78R
HAYDEN         MOCLDY    36  28  75 S3        29.78R
MEEKER         FAIR      35  31  85 NE5       29.76S WCI  31
MOUNT WERNER   NOT AVBL
STEAMBOAT SPGS FAIR      34  30  86 SE3       29.79R
WALDEN         NOT AVBL
$$

COZ006>008-011-190500-
...WEST CENTRAL VALLEYS...

CITY           SKY/WX    TMP DP  RH WIND       PRES   REMARKS
GRAND JUNCTION FAIR      40  38  93 E6        29.73S
MONTROSE       FAIR      39  34  82 SE3       29.77R
EAGLE          CLEAR     37  30  75 CALM      29.78R
RIFLE          FAIR      38  33  82 SE8       29.75R
DELTA          FAIR      42  37  85 NE6       29.74S
NUCLA          MOCLDY    41  34  75 SE5       29.77S
$$

COZ017>023-064>068-190500-
...SOUTHWEST COLORADO...

CITY           SKY/WX    TMP DP  RH WIND       PRES   REMARKS
DURANGO        FAIR      41  28  60 E6        29.79R
CORTEZ         FAIR      49  31  49 SE9       29.73S
PAGOSA SPRINGS FAIR      38  29  72 CALM      29.84R
TELLURIDE      FAIR      40  17  39 CALM      29.82S
WOLF CREEK PAS CLOUDY    23  23 100 S14       29.97S WCI  11
$$

COZ009-010-012-014-032>034-037-058>063-190500-
...CENTRAL COLORADO...

CITY           SKY/WX    TMP DP  RH WIND       PRES   REMARKS
ASPEN          FAIR      34  27  75 S5        29.78S WCI  30
BUENA VISTA    FAIR      34  27  74 CALM      29.79S
COPPER MTN     FAIR      34  19  55 MISG      29.91R
BERTHOUD PASS  FAIR      27  16  63 MISG      29.91S
COTTONWOOD PAS FAIR      43  18  36 SW5G18    29.85S
GUNNISON       FAIR      25  22  88 NE5       29.81S WCI  19
KREMMLING      FAIR      36  32  87 SE5       29.79R
LEADVILLE      FAIR      28  20  71 NE5       29.82S WCI  23
MONARCH PASS   FAIR      28  23  80 SW21G28   30.02S WCI  15
SALIDA         FAIR      46  28  49 CALM      29.85S
SUNLIGHT       NOT AVBL
WILKERSON PASS FAIR      30  21  69 SW8       29.91F WCI  23
$$

COZ069>075-190500-
...SAN LUIS VALLEY/SANGRE DE CRISTO MOUNTAINS...

CITY           SKY/WX    TMP DP  RH WIND       PRES   REMARKS
ALAMOSA        FAIR      34  32  92 S3        29.81R
LA VETA PASS   FAIR      34  23  64 N17G25    29.88S WCI  23
SAGUACHE       MOCLDY    37  32  81 E5        29.81S
$$

COZ035-036-038>040-190500-
...NORTHERN COLORADO FRONT RANGE...

CITY           SKY/WX    TMP DP  RH WIND       PRES   REMARKS
DENVER INTL AP MOCLDY    50  22  33 SW9       29.69R
DMNS CITY PARK   N/A     51  21  30 SE6       29.67S
AURORA         MOCLDY    50  21  31 S10       29.68R
FRONT RANGE AP MOCLDY    50  21  32 SE12      29.69R
ERIE MUNI ARPT FAIR      38  22  52 CALM      29.68S
BOULDER MUN AP FAIR      45  23  42 SW6       29.68R
CENTENNIAL     MOCLDY    49  22  34 S9        29.69R
BROOMFIELD     MOCLDY    50  21  32 CALM      29.70R
FORT COLLINS   FAIR      45  23  42 N8        29.67R
LONGMONT       FAIR      40  24  52 CALM      29.70R
$$

COZ041-046-047-076>085-087-088-190500-
...PIKES PEAK/PALMER DIVIDE AND SOUTHERN FOOTHILLS...

CITY           SKY/WX    TMP DP  RH WIND       PRES   REMARKS
COLO. SPRINGS  MOCLDY    43  18  36 E9        29.74R
A. F. ACADEMY  FAIR      41  20  43 CALM      29.73S
SCHRIEVER AFB  FAIR      45  18  34 SE7       29.73S
ELLICOTT       FAIR     N/A N/A N/A S15       29.72R
FALCON         NOT AVBL
FORT CARSON    FAIR      46  21  36 N5        29.71R
LIMON          FAIR      40  21  46 SE8       29.72S
MONUMENT HILL  FAIR      36  19  51 SW3       29.77R
TRINIDAD       FAIR      52  22  30 CALM      29.75R
$$

COZ042>045-048>051-090-091-190500-
...NORTHEAST COLORADO...

CITY           SKY/WX    TMP DP  RH WIND       PRES   REMARKS
GREELEY ARPT   FAIR      49  25  39 S6        29.68R
AKRON          FAIR      48  20  32 S16       29.70R
BURLINGTON     FAIR      51  28  41 S20       29.73S
WRAY           NOT AVBL
STERLING       FAIR      52  23  32 S12       29.67S
HOLYOKE        FAIR      46  30  53 SE8       29.71F
FORT MORGAN    FAIR      47  19  32 SE7       29.69R
$$

COZ086-089-092>099-190500-
...SOUTHEAST COLORADO...

CITY           SKY/WX    TMP DP  RH WIND       PRES   REMARKS
PUEBLO         FAIR      49  24  37 SE7       29.67R
LA JUNTA       FAIR      56  24  29 SE9       29.70R
LAMAR          FAIR      56  27  32 S16       29.70R
SPRINGFIELD      N/A     47  29  49 S12       29.77R
$$




USA.gov is the U.S. government's official web portal to all federal, state and local government web resources and services.